This demonstration page uses our WeatherBlox Daily Observations layout. Learn more.

Left ArrowRight Arrow

Hourly Observations for June 4, 2019

Temp ( °F °C ) Dew Point ( °F °C ) Humidity (%) Winds ( mph kmh ) Pressure ( in mb ) Visibility ( mi km ) Precip ( " mm )
12:53 am 00:53 Clear 57 13.9 54 12.2 90 90 N N/A 30.12 1020 10 16 N/A
1:53 am 01:53 Clear 56 13.3 54 12.2 93 93 N N/A 30.11 1020 10 16 N/A
2:53 am 02:53 Clear 56 13.3 53 11.7 90 90 N N/A 30.12 1020 10 16 N/A
3:53 am 03:53 Clear 53 11.7 51 10.6 93 93 N N/A 30.12 1020 10 16 N/A
4:53 am 04:53 Clear 54 12.2 51 10.6 90 90 N N/A 30.12 1020 10 16 N/A
5:53 am 05:53 Clear 54 12.2 52 11.1 93 93 N N/A 30.13 1020 7 11 N/A
6:53 am 06:53 Sunny 53 11.7 51 10.6 93 93 N N/A 30.13 1020 10 16 N/A
7:53 am 07:53 Sunny 59 15 56 13.3 90 90 N N/A 30.14 1021 10 16 N/A
8:53 am 08:53 Sunny 63 17.2 58 14.4 84 84 N N/A 30.13 1020 10 16 N/A
9:53 am 09:53 Sunny 68 20 57 13.9 68 68 N N/A 30.12 1020 10 16 N/A
10:53 am 10:53 Sunny 73 22.8 54 12.2 51 51 SSE 7 11 30.09 1019 10 16 N/A
11:53 am 11:53 Sunny 76 24.4 54 12.2 47 47 VRB 3 6 30.10 1019 10 16 N/A
12:53 pm 12:53 Sunny 77 25 54 12.2 45 45 VRB 5 7 30.07 1018 10 16 N/A
1:53 pm 13:53 Sunny 79 26.1 56 13.3 45 45 undefined N/A 30.06 1018 10 16 N/A
2:53 pm 14:53 Sunny 80 26.7 55 12.8 42 42 VRB 6 9 30.03 1017 10 16 N/A
3:53 pm 15:53 Sunny 80 26.7 55 12.8 42 42 SSW 8 13 30.00 1016 10 16 N/A
4:53 pm 16:53 Sunny 79 26.1 55 12.8 44 44 S 8 13 29.98 1015 10 16 N/A
5:53 pm 17:53 Sunny 79 26.1 55 12.8 44 44 VRB 7 11 29.97 1015 10 16 N/A
6:53 pm 18:53 Sunny 78 25.6 53 11.7 42 42 VRB 7 11 29.93 1014 10 16 N/A
7:53 pm 19:53 Sunny 76 24.4 54 12.2 47 47 VRB 6 9 29.92 1013 10 16 N/A
8:53 pm 20:53 Sunny 69 20.6 59 15 70 70 N N/A 29.92 1013 10 16 N/A
9:53 pm 21:53 Clear 67 19.4 59 15 76 76 N N/A 29.90 1013 10 16 N/A
10:53 pm 22:53 Clear 67 19.4 58 14.4 73 73 N N/A 29.91 1013 10 16 N/A
11:53 pm 23:53 Mostly Cloudy 67 19.4 59 15 76 76 N N/A 29.91 1013 10 16 N/A

Powered by AerisWeather